Flag for Cambodia Weather past 2 weeks in Phnom Penh, Cambodia

Now
73 °F

Clear.


Feels Like: 72 °F
Forecast: 67 / 92 °F
Wind: 6 mph from South

Location: Phnom-Penh / Pochentong

Current Time: Jan 26, 2015 at 4:07:59 AM

Latest Report: Jan 26, 2015 at 1:00 AM


Visibility: 4 mi

Pressure: 29.92 "Hg

Humidity: 89%

Dew point: 70 °F

Location of Phnom PenhLocation

Historic Weather in Phnom Penh — Graph

°F

Phnom Penh temperature yesterday

Maximum temperature yesterday: 90 °F (at 1:30 PM)
Minimum temperature yesterday: 68 °F (at 6:00 AM)
Average temperature yesterday: 80 °F

Past Weeks' High & Low Weather Summary

 TemperatureHumidityPressure
High102 °F (Jan 19, 5:00 PM)94% (Jan 22, 6:00 AM)30.07 "Hg (Jan 22, 6:00 AM)
Low68 °F (Jan 15, 7:00 AM)16% (Jan 15, 3:30 PM)29.71 "Hg (Jan 20, 12:00 PM)
Average79 °F60%29.92 "Hg
* Reported Jan 11 1:00 AM — Jan 26 1:00 AM, Phnom Penh, Weather by CustomWeather, © 2014

Note: Actual official high and low records may vary slightly from our data, if they occured in-between our weather recording intervals... More about our weather records

Advertising

Phnom Penh weather history for previous 24 hours

 ConditionsComfort  
Time TempWeatherWind HumidityBarometerVisibility
1:00 AM
Jan 26
73 °FClear.6 mph89%29.92 "Hg4 mi
12:30 AM73 °FClear.6 mph89%29.92 "Hg4 mi
12:00 AM73 °FClear.5 mph89%29.92 "Hg4 mi
11:30 PM
Jan 25
75 °FClear.5 mph78%29.92 "Hg4 mi
11:00 PM75 °FClear.5 mph83%29.92 "Hg4 mi
10:30 PM75 °FClear.5 mph83%29.95 "Hg4 mi
10:00 PM75 °FClear.3 mph83%29.95 "Hg4 mi
9:30 PM75 °FClear.5 mph83%29.92 "Hg4 mi
9:00 PM77 °FClear.3 mph79%29.92 "Hg4 mi
8:30 PM77 °FClear.5 mph74%29.92 "Hg4 mi
8:00 PM79 °FClear.5 mph65%29.92 "Hg4 mi
7:30 PM79 °FPassing clouds.1 mph61%29.89 "Hg4 mi
7:00 PM81 °FPassing clouds.2 mph58%29.89 "Hg4 mi
6:30 PM82 °FPassing clouds.3 mph51%29.86 "Hg4 mi
6:00 PM84 °FPassing clouds.3 mph45%29.86 "Hg6 mi
5:30 PM86 °FPassing clouds.5 mph40%29.86 "Hg6 mi
5:00 PM88 °FPassing clouds.2 mph40%29.86 "Hg6 mi
4:30 PM88 °FPassing clouds.6 mph40%29.86 "Hg6 mi
4:00 PM88 °FPassing clouds.5 mph38%29.86 "Hg6 mi
3:30 PM90 °FPassing clouds.5 mph36%29.86 "Hg6 mi
3:00 PM90 °FPassing clouds.5 mph33%29.86 "Hg6 mi
2:30 PM90 °FPassing clouds.5 mph36%29.86 "Hg6 mi
2:00 PM88 °FPassing clouds.6 mph40%29.89 "Hg6 mi
1:30 PM90 °FPassing clouds.2 mph38%29.89 "Hg5 mi
1:00 PM88 °FPassing clouds.5 mph43%29.92 "Hg5 mi
12:30 PM86 °FClear.3 mph46%29.95 "Hg5 mi
12:00 PM86 °FClear.1 mph49%29.95 "Hg5 mi
11:30 AM84 °FClear.2 mph51%29.95 "Hg5 mi
11:00 AM82 °FClear.2 mph58%29.98 "Hg5 mi
10:30 AM82 °FClear.5 mph55%29.98 "Hg5 mi
9:30 AM79 °FClear.6 mph65%30.01 "Hg4 mi
9:00 AM77 °FClear.6 mph74%30.01 "Hg4 mi
8:30 AM75 °FClear.6 mph78%29.98 "Hg4 mi
8:00 AM73 °FFog.3 mph83%29.98 "Hg3 mi
7:30 AM72 °FFog.3 mph88%29.98 "Hg3 mi
7:00 AM70 °FFog.2 mph88%29.95 "Hg3 mi
6:30 AM70 °FFog.3 mph88%29.92 "Hg2 mi
6:00 AM68 °FFog.3 mph94%29.92 "Hg2 mi
Weather by CustomWeather, © 2014

See weather overviewHow to use our weather pages